This demonstration page uses our WeatherBlox Daily Observations layout. Learn more.

Left ArrowRight Arrow

Hourly Observations for August 20, 2022

Temp ( °F °C ) Dew Point ( °F °C ) Humidity (%) Winds ( mph kmh ) Pressure ( in mb ) Visibility ( mi km ) Precip ( " mm )
12:15 am 00:15 Clear with Nearby Thunderstorms 61 16 56 13.1 83 83 NE 6 9 29.97 1015 10 16 0.00 0.00
12:35 am 00:35 Clear 60 15.7 55 13 84 84 NE 5 7 29.97 1015 10 16 0.00 0.00
12:55 am 00:55 Clear 60 15.4 54 12.3 82 82 SSW 3 6 29.99 1015 10 16 0.00 0.00
1:15 am 01:15 Clear 60 15.8 54 12.3 80 80 Calm 29.97 1015 10 16 0.00 0.00
1:35 am 01:35 Clear 58 14.6 55 12.5 87 87 Calm 29.98 1015 10 16 0.00 0.00
1:55 am 01:55 Clear 59 14.8 54 12.2 84 84 Calm 29.98 1015 10 16 0.00 0.00
2:15 am 02:15 Clear 60 15.5 54 12.4 82 82 Calm 29.98 1015 10 16 0.00 0.00
2:35 am 02:35 Clear 60 15.7 54 12.1 79 79 WNW 5 7 29.96 1015 10 16 0.00 0.00
2:55 am 02:55 Clear 59 15 54 12.2 83 83 Calm 29.97 1015 10 16 0.00 0.00
3:15 am 03:15 Clear 58 14.4 54 12 85 85 WNW 3 6 29.97 1015 10 16 0.00 0.00
3:35 am 03:35 Clear 57 13.7 53 11.7 88 88 NW 3 6 29.99 1016 10 16 0.00 0.00
3:55 am 03:55 Clear 56 13.1 53 11.7 91 91 NNW 5 7 30.00 1016 10 16 0.00 0.00
4:15 am 04:15 Clear 56 13.6 54 12 90 90 NNW 6 9 29.99 1016 10 16 0.00 0.00
4:35 am 04:35 Clear 57 13.8 53 11.7 87 87 NNW 6 9 30.00 1016 10 16 0.00 0.00
4:55 am 04:55 Clear 57 14.1 53 11.6 85 85 NNW 6 9 30.01 1016 10 16 0.00 0.00
5:15 am 05:15 Clear 57 14 53 11.5 85 85 NW 3 6 30.01 1016 10 16 0.00 0.00
5:35 am 05:35 Clear 57 14 53 11.5 85 85 NW 3 6 30.01 1016 10 16 0.00 0.00
5:55 am 05:55 Clear 56 13.2 52 11.3 88 88 NNW 5 7 30.03 1017 10 16 0.00 0.00
6:15 am 06:15 Clear 55 13 52 11.2 89 89 W 3 6 30.04 1017 10 16 0.00 0.00
6:35 am 06:35 Clear 56 13.3 53 11.5 89 89 NW 5 7 30.04 1017 10 16 0.00 0.00
6:55 am 06:55 Sunny 56 13.5 53 11.5 88 88 NW 6 9 30.04 1017 10 16 0.00 0.00
7:15 am 07:15 Sunny 56 13.5 53 11.6 88 88 NW 6 9 30.05 1018 10 16 0.00 0.00
7:35 am 07:35 Sunny 57 14 54 12.1 88 88 NNW 6 9 30.06 1018 10 16 0.00 0.00
7:55 am 07:55 Sunny 58 14.7 55 12.7 88 88 NW 5 7 30.05 1018 10 16 0.00 0.00
8:15 am 08:15 Sunny 60 15.7 56 13.3 86 86 N 7 11 30.04 1017 10 16 0.00 0.00
8:35 am 08:35 Sunny 62 16.6 57 14 85 85 NNW 7 11 30.05 1017 10 16 0.00 0.00
8:55 am 08:55 Sunny 64 17.5 58 14.5 83 83 NNW 7 11 30.05 1018 10 16 0.00 0.00
9:15 am 09:15 Sunny 65 18.2 59 15 82 82 N 6 9 30.05 1018 10 16 0.00 0.00
9:35 am 09:35 Sunny 66 18.8 59 15.1 79 79 NNE 8 13 30.05 1018 10 16 0.00 0.00
9:55 am 09:55 Partly Cloudy 67 19.2 60 15.3 78 78 Calm 30.04 1017 10 16 0.00 0.00
10:15 am 10:15 Partly Cloudy 68 19.9 60 15.6 76 76 N 13 20 30.04 1017 10 16 0.00 0.00
10:35 am 10:35 Partly Cloudy 69 20.7 60 15.6 73 73 NNE 10 17 30.03 1017 10 16 0.00 0.00
10:55 am 10:55 Partly Cloudy 70 21.2 60 15.7 71 71 N 10 17 30.04 1017 10 16 0.00 0.00
11:15 am 11:15 Partly Cloudy 71 21.4 60 15.8 70 70 N 14 22 30.04 1017 10 16 0.00 0.00
11:35 am 11:35 Partly Cloudy 71 21.7 60 15.7 69 69 N 15 24 30.03 1017 10 16 0.00 0.00
11:55 am 11:55 Mostly Cloudy 71 21.9 61 15.9 69 69 N 12 19 30.03 1017 10 16 0.00 0.00
12:15 pm 12:15 Partly Cloudy 71 21.6 60 15.3 67 67 N 14 22 30.03 1017 10 16 0.00 0.00
12:35 pm 12:35 Sunny 73 22.5 59 15.1 63 63 N 12 19 30.03 1017 10 16 0.00 0.00
12:55 pm 12:55 Sunny 73 22.9 60 15.4 63 63 N 12 19 30.00 1016 10 16 0.00 0.00
1:15 pm 13:15 Partly Cloudy 74 23.6 59 15.1 59 59 N 13 20 29.99 1016 10 16 0.00 0.00
1:35 pm 13:35 Partly Cloudy 75 24.1 60 15.4 58 58 N 10 17 29.97 1015 10 16 0.00 0.00
1:55 pm 13:55 Partly Cloudy 76 24.2 59 15.2 57 57 NNE 12 19 29.97 1015 10 16 0.00 0.00
2:15 pm 14:15 Sunny 77 24.9 60 15.3 55 55 NNE 12 19 29.97 1015 10 16 0.00 0.00
2:35 pm 14:35 Partly Cloudy 77 25 59 14.8 53 53 NNE 12 19 29.96 1015 10 16 0.00 0.00
2:55 pm 14:55 Partly Cloudy 77 24.9 58 14.7 53 53 NNE 10 17 29.97 1015 10 16 0.00 0.00
3:15 pm 15:15 Partly Cloudy 75 24.1 58 14.5 55 55 ENE 7 11 29.97 1015 10 16 0.00 0.00
3:35 pm 15:35 Mostly Cloudy 78 25.4 58 14.6 51 51 NE 8 13 29.95 1014 10 16 0.00 0.00
3:55 pm 15:55 Partly Cloudy 78 25.6 58 14.6 51 51 NNE 9 15 29.95 1014 10 16 0.00 0.00
4:15 pm 16:15 Partly Cloudy 78 25.6 59 14.9 52 52 ENE 9 15 29.95 1014 10 16 0.00 0.00
4:35 pm 16:35 Partly Cloudy 77 25.1 58 14.5 52 52 NNE 6 9 29.96 1014 10 16 0.00 0.00
4:55 pm 16:55 Sunny 78 25.3 58 14.3 51 51 ENE 7 11 29.94 1014 10 16 0.00 0.00
5:15 pm 17:15 Sunny 78 25.7 58 14.3 49 49 NE 7 11 29.94 1014 10 16 0.00 0.00
5:35 pm 17:35 Sunny 78 25.6 57 14.1 49 49 ENE 5 7 29.95 1014 10 16 0.00 0.00
5:55 pm 17:55 Sunny 78 25.7 56 13.6 47 47 Calm 29.95 1014 10 16 0.00 0.00
6:15 pm 18:15 Sunny 77 25.1 56 13.3 48 48 N 3 6 29.96 1014 10 16 0.00 0.00
6:35 pm 18:35 Sunny 78 25.3 58 14.3 51 51 SE 5 7 29.95 1014 10 16 0.00 0.00
6:55 pm 18:55 Partly Cloudy 77 25.1 58 14.2 51 51 ESE 3 6 29.96 1014 10 16 0.00 0.00
7:15 pm 19:15 Sunny 76 24.7 58 14.4 53 53 SE 5 7 29.96 1015 10 16 0.00 0.00
7:35 pm 19:35 Sunny 75 24 60 15.4 59 59 SE 3 6 29.96 1015 10 16 0.00 0.00
7:55 pm 19:55 Sunny 73 22.8 61 15.9 65 65 SE 5 7 29.97 1015 10 16 0.00 0.00
8:15 pm 20:15 Sunny 70 21 62 16.4 75 75 ESE 5 7 29.99 1016 10 16 0.00 0.00
8:35 pm 20:35 Clear 68 20.2 60 15.3 73 73 ESE 5 7 30.00 1016 10 16 0.00 0.00
8:55 pm 20:55 Clear 66 18.9 59 15.2 79 79 ESE 5 7 30.01 1016 7 11 0.00 0.00
9:15 pm 21:15 Clear 65 18.5 59 15.1 81 81 ESE 6 9 30.02 1017 7 11 0.00 0.00
9:35 pm 21:35 Clear 64 17.6 59 14.8 84 84 ESE 6 9 30.03 1017 10 16 0.00 0.00
9:55 pm 21:55 Clear 63 17.3 59 14.8 85 85 SE 5 7 30.04 1017 10 16 0.00 0.00
10:15 pm 22:15 Clear 62 16.9 58 14.5 86 86 SSE 3 6 30.05 1018 10 16 0.00 0.00
10:35 pm 22:35 Clear 61 16 57 14.1 88 88 Calm 30.06 1018 10 16 0.00 0.00
10:55 pm 22:55 Clear 62 16.4 58 14.7 90 90 ESE 3 6 30.06 1018 10 16 0.00 0.00
11:15 pm 23:15 Clear 60 15.7 57 14 90 90 ESE 6 9 30.06 1018 10 16 0.00 0.00
11:35 pm 23:35 Clear 61 16.1 57 14 87 87 ESE 6 9 30.07 1018 10 16 0.00 0.00
11:55 pm 23:55 Clear 59 15 56 13.4 90 90 ESE 6 9 30.08 1019 10 16 0.00 0.00

Powered by AerisWeather